Regional Weather Roundup
Issued by NWS Sterling, VA

Home | Current Version | Previous Version | Text Only | Print | Product List | Glossary On
Versions: 1 2 3 4 5 6 7 8 9 10 11 12 13 14 15 16 17 18 19 20 21 22 23 24 25 26 27 28 29 30 31 32 33 34 35 36 37 38 39 40 41 42 43 44 45 46 47 48 49 50
000
ASUS41 KLWX 011110
RWRLWX

REGIONAL WEATHER ROUNDUP
NATIONAL WEATHER SERVICE BALTIMORE MD/WASHINGTON DC
700 AM EDT WED OCT 01 2014

Note: "FAIR" indicates few or no clouds below 12,000 feet
with no significant weather and/or obstructions to visibility.
 TC=TEMPERATURE CELSIUS

 * =Non NWS site. Station does not report precipitation (e.g. rain,
    snow, etc.), thunder, or fog.

DCZ001-MDZ009-015-VAZ040>042-051-053>054-011200-
WASHINGTON METRO

CITY           SKY/WX    TMP DP  RH WIND       PRES   REMARKS
WASHINGTON NAT LGT RAIN  66  60  81 NE3       29.99R
DULLES         LGT RAIN  62  61  96 E5        29.99R FOG
ANDREWS AFB    LGT RAIN  62  62  99 E5        29.98S
QUANTICO       CLOUDY    65  62  90 NE7       29.99R
COLLEGE PARK*  CLOUDY    63  63 100 CALM      29.99R
LEESBURG*      LGT RAIN  63  63 100 CALM      30.00R
MANASSAS*      CLOUDY    64  64 100 CALM      29.98S
GAITHERSBURG*  CLOUDY    61  59  94 CALM      30.03R

$$

MDZ006>007-011-014-011200-
BALTIMORE METRO

CITY           SKY/WX    TMP DP  RH WIND       PRES   REMARKS
BWI AIRPORT    MOCLDY    63  60  90 NE6       29.98R
MD SCIENCE CTR   N/A     63  59  87 MISG      29.99R
MARTIN STATE   PTCLDY    63  63 100 CALM      29.99R
ANNAPOLIS      PTCLDY    65  60  84 MISG      29.98R
FORT MEADE*    MOCLDY    61  59  94 CALM      30.01R

$$

MDZ012-015-019>023-011200-
MARYLAND EASTERN SHORE

CITY           SKY/WX    TMP DP  RH WIND       PRES   REMARKS
OCEAN CITY     PTCLDY   N/A N/A N/A N6        29.94R
SALISBURY      CLOUDY    64  61  88 NW6       29.96R
BAY BRIDGE AP*   N/A     63  61  94 E9        29.98R
CAMBRIDGE*     CLOUDY    63  59  88 NE8       29.97R
EASTON*        CLOUDY    63  63 100 CALM      30.01R

$$

MDZ017>025-011200-
SOUTHERN MARYLAND

CITY           SKY/WX    TMP DP  RH WIND       PRES   REMARKS
PATUXENT RIVER MOCLDY    63  60  90 NE6       29.97R
ST INIGOES     CLEAR     62  59  90 NE5       29.96R
LEONARDTOWN*   MOCLDY    61  59  94 CALM      29.99R

$$

MDZ003>005-011200-
NORTH CENTRAL MARYLAND

CITY           SKY/WX    TMP DP  RH WIND       PRES   REMARKS
FREDERICK*     CLOUDY    64  63  94 VRB3      30.02R
HAGERSTOWN APT CLOUDY    61  58  90 N3        29.99R FOG
WESTMINSTER*   MOCLDY    61  57  88 CALM      30.00R FOG

$$

MDZ501>502-011200-
WESTERN MARYLAND

CITY           SKY/WX    TMP DP  RH WIND       PRES   REMARKS
OAKLAND*       CLEAR     52 N/A N/A S7        30.00S
CUMBERLAND*    CLOUDY    61  59  94 CALM      30.03R

$$

VAZ025>031-011200-
SHENANDOAH VALLEY

CITY           SKY/WX    TMP DP  RH WIND       PRES   REMARKS
WINCHESTER*    FOG       61  61 100 CALM      29.98R VSB 3/4
STAUNTON*      CLOUDY    58  56  92 CALM      30.01R FOG

$$

WVZ021-048>050-054>055-011200-
EASTERN WEST VIRGINIA PANHANDLE

CITY           SKY/WX    TMP DP  RH WIND       PRES   REMARKS
MARTINSBURG    CLOUDY    62  58  86 NE3       29.99R FOG
PETERSBURG*    FOG      N/A N/A N/A CALM      30.00R VSB 1/4

$$

VAZ036>039-050-011200-
CENTRAL FOOTHILLS

CITY           SKY/WX    TMP DP  RH WIND       PRES   REMARKS
CHARLOTTESVILL CLOUDY    62  61  96 NE5       29.98R FOG
ORANGE*        CLOUDY    61  61 100 CALM      29.99R FOG

$$

VAZ055>057-011200-
NORTH AND CENTRAL PIEDMONT

CITY           SKY/WX    TMP DP  RH WIND       PRES   REMARKS
FREDERICKSBRG* CLOUDY    64  64 100 CALM      29.97R FOG
STAFFORD*      CLOUDY    64  64 100 CALM      30.02R

$$

NCZ024-NYZ072-PAZ021-071-VAZ022-071-011200-
OTHER REGIONAL OBSERVATIONS

CITY           SKY/WX    TMP DP  RH WIND       PRES   REMARKS
NEW YORK CITY  CLOUDY    63  55  75 NE5       30.04R
PHILADELPHIA   CLOUDY    64  58  80 NE9       29.99R
PITTSBURGH     FOG       55  55 100 N3        29.98S VSB 1/4
ROANOKE        PTCLDY    56  53  90 W3        30.01R
RICHMOND       MOCLDY    60  58  92 NE5       29.97R FOG
RALEIGH        PTCLDY    58  56  93 CALM      29.97R FOG

$$

ANZ530>537-011200-
MARINE OBSERVATIONS

STATION/POSITION TIME  TEMP    WIND        PRES
                       AIR SEA DIR/SP/G
                 (UTC) (F)     (DEG/KT/KT) (MB)
THOMAS PT LIGHT  1100   64 72   60/ 12/ 13 1016.1R
BALT KEY BRIDGE  1100   64      30/  5/  6 1015.0R
COVE POINT       1100   64      50/  9/ 10 1014.8R
LEWISETTA        1100   67 72   50/  7/  9 1014.1R
SOLOMONS ISLAND  1100      72                N/A
PINEY POINT      1100           60/  5/  5   N/A

$$




USA.gov is the U.S. government's official web portal to all federal, state and local government web resources and services.